[[{"header":{"parameterUnit":"m.s-1","parameterCategory":2,"la1":30.2991,"la2":30.254,"lo1":-89.0895,"lo2":-89.0444,"dy":0.0017,"dx":0.0017,"nx":28,"ny":28,"refTime":"2023-07-26T21:00:00:Z","depth":"0","parameterNumber":2,"parameterNumberName":"U-component_of_CURRENTS"},"data":[0,0,0,0,0,0,0,0,0,0,0,0,0,0,0,0,0,0,0,0,0,0,0,0,0,0,0,0,0,0,0,0,0,0,0,0,0,0,0,0,0,0,0,0,0,0,0,0,0,0,0,0,0,0,0,0,0,0,0.3277,0.3277,0,0.324,0.3239,0.3239,0.3235,0.3235,0.3236,0.3236,0.3234,0.3233,0.3233,0,0,0,0,0,0,0,0,0,0,0,0,0,0.3322,0.3322,0.3277,0.3277,0.3277,0.324,0.3239,0.3239,0.3234,0.3235,0.3236,0.3237,0.3234,0.3233,0.3233,0,0,0,0,0,0,0,0,0,0,0,0,0,0.3294,0.3321,0.3277,0.3272,0.3271,0.324,0.3239,0.3239,0.3234,0.3235,0.3236,0.3237,0.3234,0.3233,0.3233,0.3209,0,0,0.323,0.3229,0,0,0,0,0,0,0,0,0.3295,0.3292,0.3273,0.3272,0.3272,0.3245,0.3255,0.3231,0.3234,0.3246,0.3236,0.3237,0.3242,0.324,0.3227,0.3209,0.3209,0.323,0.3229,0.3229,0.3228,0,0,0,0,0,0,0,0.3297,0.3293,0.326,0.3273,0.3272,0.3264,0.3261,0.325,0.3238,0.3245,0.3245,0.3245,0.3241,0.3228,0.3227,0.3209,0.323,0.3229,0.3228,0.3228,0.3228,0.3228,0,0,0,0,0,0,0.3307,0.3295,0.3261,0.3259,0.3289,0.3263,0.3259,0.3251,0.3237,0.3237,0.3244,0.3245,0.3229,0.3228,0.3227,0.3227,0.3229,0.3228,0.3227,0.3227,0.3228,0.3228,0,0,0,0,0,0,0.3308,0.3304,0.3263,0.3279,0.3273,0.3262,0.3252,0.325,0.324,0.3237,0.3236,0.3238,0.323,0.3229,0.3223,0.3227,0.3227,0.3226,0.3226,0.3227,0.3228,0.321,0,0,0,0,0,0,0.3309,0.3304,0.3296,0.3279,0.3273,0.3245,0.3251,0.3248,0.3239,0.324,0.3231,0.3232,0.3231,0.3225,0.3222,0.3225,0.3226,0.3226,0.3227,0.3228,0.321,0.321,0.321,0,0,0,0,0,0.331,0.3302,0.3295,0.3291,0.3263,0.3244,0.324,0.3233,0.3238,0.3229,0.323,0.3232,0.3231,0.3224,0.3221,0.3224,0.3225,0.3226,0.3228,0.3209,0.321,0.321,0,0,0,0,0,0,0.3317,0.33,0.3293,0.3279,0.3262,0.3245,0.3236,0.3232,0.3222,0.3226,0.3226,0.3225,0.3231,0.3228,0.3221,0.3231,0.3233,0.3234,0.3221,0.3221,0.3221,0.3233,0.3225,0,0,0,0,0,0.3314,0.3303,0.3284,0.3272,0.3263,0.3248,0.3239,0.3234,0.3226,0.3222,0.3214,0.3218,0.3232,0.3226,0.3233,0.322,0.3267,0.3227,0.3227,0.3227,0.3238,0.3323,0.3333,0.3232,0.3232,0.3232,0,0,0.3314,0.3303,0.3296,0.3273,0.3258,0.3235,0.3244,0.323,0.3214,0.3223,0.3199,0.3218,0.3233,0.3232,0.3233,0.3227,0.3279,0.3229,0.3228,0.3239,0.3326,0.3336,0.3345,0.3233,0.3233,0.3233,0,0,0.3307,0.3296,0.3281,0.3262,0.3242,0.323,0.3227,0.3205,0.32,0.3181,0.3202,0.3223,0.3208,0.323,0.324,0.3244,0.3286,0.3246,0.3241,0.3324,0.3333,0.3342,0.3407,0.3422,0.3235,0.3235,0.3235,0,0.3308,0.3281,0.3274,0.3249,0.3231,0.3227,0.3201,0.3191,0.317,0.3173,0.3174,0.3206,0.3214,0.3243,0.3248,0.3245,0.3297,0.3234,0.3325,0.3335,0.3344,0.3409,0.3425,0.3234,0.3234,0.3234,0.3234,0,0.3281,0.3258,0.3248,0.3213,0.3192,0.3173,0.3156,0.3146,0.3143,0.3142,0.3169,0.3192,0.3216,0.3225,0.3234,0.33,0.3318,0.3324,0.3324,0.3353,0.3419,0.3437,0.3233,0.3233,0.3233,0.3234,0,0,0.3286,0.324,0.3234,0.3209,0.3172,0.3153,0.3133,0.312,0.3124,0.3125,0.3142,0.3178,0.3208,0.3225,0.3251,0.3316,0.342,0.3344,0.3348,0.3407,0.3603,0.3553,0.3567,0.3449,0.3452,0.3454,0.362,0,0.3265,0.3221,0.3199,0.315,0.3122,0.3109,0.3091,0.3083,0.309,0.3105,0.3156,0.3187,0.3201,0.3229,0.3295,0.3402,0.3467,0.3374,0.3567,0.3573,0.3525,0.3586,0.342,0.3548,0.3637,0.364,0.3643,0,0.3236,0.3212,0.3167,0.3121,0.3108,0.3084,0.3068,0.3052,0.3081,0.3094,0.314,0.318,0.3272,0.3283,0.3475,0.342,0.351,0.3587,0.3595,0.357,0.3556,0.3536,0.3578,0.3388,0.367,0.3668,0.3666,0,0.3237,0.3184,0.3151,0.3131,0.3085,0.3073,0.3055,0.3058,0.3056,0.3104,0.3124,0.3224,0.3289,0.3426,0.3561,0.354,0.3779,0.3766,0.3803,0.38,0.3707,0.369,0.3587,0.3908,0.3908,0.3907,0.3907,0,0.3214,0.3183,0.3153,0.3132,0.3102,0.3071,0.3054,0.3055,0.3071,0.3082,0.3129,0.3176,0.3336,0.3467,0.3589,0.3752,0.3805,0.3826,0.385,0.3692,0.3673,0.3542,0.3475,0.3913,0.3912,0.3911,0.391,0,0.3202,0.3183,0.3145,0.311,0.3098,0.3078,0.3044,0.3039,0.3057,0.3079,0.31,0.3185,0.3349,0.3495,0.3727,0.3783,0.3825,0.3984,0.3776,0.3771,0.36,0.354,0.3468,0.3387,0.4058,0.4058,0.4058,0,0.3181,0.3167,0.3138,0.312,0.3101,0.307,0.3049,0.304,0.3039,0.3085,0.3106,0.3239,0.3325,0.3612,0.3751,0.3947,0.3813,0.3884,0.3805,0.3579,0.3531,0.3413,0.3341,0.3679,0.3676,0.3673,0.3671,0,0.3148,0.3153,0.3133,0.3106,0.308,0.3043,0.302,0.3017,0.3017,0.3047,0.3107,0.3179,0.3388,0.3485,0.3694,0.3801,0.3638,0.3836,0.3663,0.328,0.3086,0.3021,0.3572,0.3648,0.365,0.3652,0.3653,0.3654,0.313,0.3117,0.3104,0.3076,0.3046,0.3008,0.2972,0.2971,0.2971,0.2989,0.3088,0.3144,0.3203,0.3465,0.3554,0.3471,0.3519,0.3358,0.3327,0.3245,0.3074,0.3563,0.3621,0.3623,0.3624,0.3626,0.3627,0,0.3087,0.3079,0.3062,0.3019,0.2978,0.2974,0.2937,0.2895,0.289,0.295,0.3004,0.2971,0.3001,0.305,0.3032,0.2952,0.2883,0.2837,0.2597,0.2577,0.3059,0.2942,0.2777,0.2777,0.2777,0.2778,0.2778,0.2778,0.3061,0.3033,0.303,0.2958,0.2928,0.2843,0.2816,0.2778,0.2789,0.2734,0.2692,0.2699,0.2625,0.2537,0.2416,0.2404,0.2218,0.2126,0.2149,0.2413,0.2456,0.2497,0.2366,0.2083,0.2082,0.1552,0.1547,0.1543]},{"header":{"parameterUnit":"m.s-1","parameterCategory":2,"la1":30.2991,"la2":30.254,"lo1":-89.0895,"lo2":-89.0444,"dy":0.0017,"dx":0.0017,"nx":28,"ny":28,"refTime":"2023-07-26T21:00:00:Z","depth":"0","parameterNumber":3,"parameterNumberName":"V-component_of_CURRENTS"},"data":[0,0,0,0,0,0,0,0,0,0,0,0,0,0,0,0,0,0,0,0,0,0,0,0,0,0,0,0,0,0,0,0,0,0,0,0,0,0,0,0,0,0,0,0,0,0,0,0,0,0,0,0,0,0,0,0,0,0,0.0924,0.0924,0,0.0914,0.0914,0.0914,0.0922,0.0922,0.0922,0.0922,0.0849,0.0847,0.0844,0,0,0,0,0,0,0,0,0,0,0,0,0,0.0959,0.0958,0.0924,0.0924,0.0924,0.0914,0.0914,0.0914,0.0922,0.0922,0.0922,0.0923,0.0849,0.0847,0.0844,0,0,0,0,0,0,0,0,0,0,0,0,0,0.0947,0.0958,0.0924,0.0926,0.0926,0.0914,0.0914,0.0914,0.0922,0.0922,0.0922,0.0923,0.085,0.0847,0.0844,0.0816,0,0,0.0834,0.0832,0,0,0,0,0,0,0,0,0.0947,0.0945,0.0926,0.0926,0.0926,0.0919,0.0899,0.0878,0.0922,0.0924,0.0922,0.0923,0.0865,0.0861,0.086,0.0813,0.081,0.0834,0.0832,0.083,0.0829,0,0,0,0,0,0,0,0.0948,0.0946,0.0921,0.0926,0.0925,0.0929,0.0928,0.0895,0.0893,0.0924,0.0924,0.0921,0.0865,0.0864,0.0859,0.0809,0.0834,0.0831,0.0829,0.0827,0.0734,0.0733,0,0,0,0,0,0,0.0946,0.0947,0.0922,0.0921,0.0936,0.0928,0.0927,0.0921,0.0894,0.0891,0.0921,0.0922,0.0869,0.0862,0.0856,0.084,0.083,0.0827,0.0825,0.0734,0.0734,0.0733,0,0,0,0,0,0,0.0947,0.0944,0.0922,0.0933,0.093,0.0927,0.0921,0.0921,0.092,0.0892,0.0888,0.092,0.0869,0.086,0.0839,0.0837,0.0826,0.0823,0.0735,0.0734,0.0733,0.0797,0,0,0,0,0,0,0.0948,0.0944,0.094,0.0933,0.093,0.0917,0.092,0.092,0.0917,0.0917,0.0889,0.0883,0.0869,0.0844,0.0836,0.0832,0.082,0.0735,0.0734,0.0734,0.0795,0.0798,0.0801,0,0,0,0,0,0.0949,0.0939,0.0939,0.0936,0.0923,0.0916,0.0916,0.0915,0.0916,0.0916,0.0905,0.0884,0.0832,0.0842,0.0832,0.0827,0.0736,0.0735,0.0734,0.0794,0.0798,0.0801,0,0,0,0,0,0,0.0945,0.0939,0.0939,0.0926,0.0923,0.0918,0.0913,0.0913,0.0905,0.0905,0.0883,0.0876,0.0858,0.0827,0.0839,0.0794,0.0777,0.0774,0.0826,0.0829,0.0832,0.0853,0.0817,0,0,0,0,0,0.0943,0.0938,0.0932,0.0922,0.0919,0.0916,0.0913,0.0914,0.0906,0.0903,0.0887,0.0862,0.0843,0.0826,0.0803,0.0776,0.0756,0.0762,0.0765,0.0768,0.0777,0.0754,0.0757,0.0729,0.0729,0.0729,0,0,0.0939,0.0934,0.0931,0.0922,0.0918,0.0921,0.0916,0.091,0.0917,0.0893,0.0892,0.0873,0.0839,0.0823,0.0809,0.0797,0.0761,0.0766,0.0769,0.0777,0.0753,0.0756,0.0759,0.0728,0.0728,0.0729,0,0,0.0927,0.0923,0.0916,0.092,0.0916,0.0918,0.0917,0.0913,0.0915,0.091,0.0899,0.0887,0.0846,0.0836,0.0821,0.0818,0.0782,0.0794,0.0822,0.0801,0.0804,0.0806,0.0778,0.0778,0.0791,0.0791,0.0791,0,0.092,0.0916,0.0913,0.0913,0.0921,0.0919,0.0923,0.0925,0.0918,0.0924,0.0914,0.0885,0.0858,0.0849,0.0852,0.0827,0.0804,0.0819,0.0807,0.0809,0.081,0.0782,0.078,0.0794,0.0793,0.0793,0.0793,0,0.0908,0.0912,0.0908,0.0916,0.0923,0.0925,0.0933,0.0941,0.0943,0.0947,0.0943,0.0918,0.0905,0.0885,0.087,0.0861,0.0838,0.0822,0.0808,0.0818,0.0786,0.0783,0.0798,0.0797,0.0796,0.0795,0,0,0.0874,0.0896,0.0896,0.0912,0.0929,0.0934,0.0953,0.0969,0.099,0.0978,0.1002,0.0968,0.0963,0.0946,0.092,0.0897,0.0887,0.0865,0.0863,0.0854,0.0833,0.0807,0.0801,0.0868,0.0868,0.0868,0.0806,0,0.0866,0.0874,0.0892,0.0915,0.0925,0.0951,0.0974,0.0994,0.1009,0.1033,0.1014,0.1021,0.0982,0.0983,0.0957,0.0919,0.0883,0.0905,0.0811,0.0808,0.0797,0.0798,0.0813,0.0758,0.0803,0.0803,0.0802,0,0.0853,0.0863,0.088,0.093,0.0937,0.0955,0.1007,0.103,0.1067,0.108,0.1089,0.1084,0.1074,0.1032,0.0964,0.098,0.0908,0.0863,0.0859,0.0814,0.0777,0.0754,0.0751,0.0619,0.0798,0.0798,0.0799,0,0.0837,0.0863,0.088,0.0895,0.0942,0.0963,0.0994,0.1039,0.1071,0.1117,0.1151,0.1132,0.1141,0.106,0.0987,0.0971,0.0906,0.087,0.0768,0.0765,0.0749,0.0745,0.0624,0.0796,0.0796,0.0796,0.0796,0,0.0833,0.0849,0.0873,0.0886,0.0918,0.0958,0.1004,0.1042,0.11,0.1158,0.1173,0.1221,0.1148,0.1115,0.1013,0.0901,0.0922,0.0777,0.0751,0.0769,0.0768,0.0628,0.0576,0.0794,0.0794,0.0795,0.0795,0,0.0826,0.0839,0.0862,0.09,0.0913,0.094,0.101,0.105,0.1112,0.1194,0.1217,0.1282,0.1263,0.1171,0.1062,0.0944,0.0771,0.0772,0.0801,0.0778,0.0547,0.0499,0.0388,0.0364,0.0645,0.0644,0.0643,0,0.0827,0.0834,0.0863,0.0876,0.0894,0.0935,0.0973,0.1043,0.1098,0.1241,0.1288,0.1323,0.1386,0.1233,0.1041,0.0859,0.075,0.0707,0.067,0.0538,0.0464,0.0445,0.0433,0.0668,0.0667,0.0667,0.0667,0,0.083,0.0835,0.0852,0.0868,0.0898,0.0946,0.101,0.106,0.1172,0.1278,0.1433,0.1511,0.1413,0.1295,0.1042,0.0893,0.0648,0.0688,0.0549,0.0472,0.0448,0.0412,0.0698,0.0663,0.0663,0.0663,0.0664,0.0664,0.083,0.0835,0.0845,0.0865,0.0902,0.0966,0.1028,0.1131,0.1262,0.1474,0.1538,0.1721,0.1487,0.1185,0.098,0.0571,0.0602,0.0435,0.0387,0.0378,0.0358,0.063,0.0567,0.0567,0.0567,0.0566,0.0566,0,0.0815,0.0822,0.0842,0.0873,0.0917,0.0944,0.1061,0.1161,0.1347,0.1583,0.1762,0.1751,0.1469,0.1137,0.0583,0.0314,0.0258,0.0168,0.0139,0.0141,0.037,0.0372,0.0268,0.0268,0.0269,0.0269,0.0269,0.0269,0.0808,0.0809,0.0818,0.0873,0.0911,0.1008,0.109,0.127,0.1463,0.1749,0.19,0.1983,0.1641,0.0742,0.0138,0.0016,-0.0114,-0.014,-0.0208,-0.0079,-0.0058,-0.0038,-0.0051,-0.0242,-0.0243,-0.0389,-0.0391,-0.0392]}],[{"header":{"parameterUnit":"m.s-1","parameterCategory":2,"la1":30.2991,"la2":30.254,"lo1":-89.0895,"lo2":-89.0444,"dy":0.0017,"dx":0.0017,"nx":28,"ny":28,"refTime":"2023-07-26T21:00:00:Z","depth":"2","parameterNumber":2,"parameterNumberName":"U-component_of_CURRENTS"},"data":[0,0,0,0,0,0,0,0,0,0,0,0,0,0,0,0,0,0,0,0,0,0,0,0,0,0,0,0,0,0,0,0,0,0,0,0,0,0,0,0,0,0,0,0,0,0,0,0,0,0,0,0,0,0,0,0,0,0,0.2473,0.2473,0,0.2505,0.2505,0.2506,0.2575,0.2577,0.2578,0.258,0.2628,0.2628,0.2628,0,0,0,0,0,0,0,0,0,0,0,0,0,0.2439,0.2439,0.2473,0.2473,0.2474,0.2505,0.2505,0.2506,0.2575,0.2577,0.2579,0.2581,0.2628,0.2628,0.2628,0,0,0,0,0,0,0,0,0,0,0,0,0,0.2459,0.2439,0.2473,0.2514,0.2518,0.2505,0.2505,0.2506,0.2574,0.2577,0.2579,0.2581,0.2628,0.2628,0.2628,0.2578,0,0,0.2627,0.2627,0,0,0,0,0,0,0,0,0.2457,0.2459,0.2507,0.2511,0.2516,0.254,0.2511,0.2531,0.2574,0.2551,0.258,0.2583,0.26,0.2602,0.26,0.258,0.2582,0.2627,0.2627,0.2627,0.2627,0,0,0,0,0,0,0,0.2456,0.2458,0.2483,0.2508,0.2513,0.252,0.2525,0.2515,0.256,0.2553,0.2559,0.2565,0.2603,0.26,0.2601,0.2583,0.2627,0.2627,0.2626,0.2626,0.2649,0.265,0,0,0,0,0,0,0.2455,0.2457,0.2482,0.2485,0.2494,0.2519,0.2525,0.2528,0.256,0.2568,0.2563,0.2568,0.2599,0.2602,0.2603,0.2645,0.2627,0.2626,0.2626,0.2648,0.2649,0.265,0,0,0,0,0,0,0.2454,0.2457,0.2481,0.2473,0.2478,0.2517,0.252,0.2528,0.2552,0.2568,0.2576,0.2583,0.2601,0.2604,0.2624,0.2644,0.2626,0.2626,0.2647,0.2649,0.265,0.2664,0,0,0,0,0,0,0.2453,0.2456,0.2461,0.2473,0.2478,0.2488,0.2518,0.2527,0.2552,0.256,0.2587,0.2593,0.2603,0.2624,0.2623,0.2643,0.2626,0.2646,0.2648,0.2649,0.2663,0.2666,0.2668,0,0,0,0,0,0.2451,0.2445,0.2461,0.2465,0.2483,0.2488,0.2491,0.2526,0.2551,0.2557,0.2586,0.2593,0.2634,0.2624,0.2623,0.2643,0.2646,0.2648,0.2649,0.2662,0.2665,0.2668,0,0,0,0,0,0,0.243,0.2451,0.247,0.2471,0.2487,0.2502,0.2508,0.253,0.2554,0.2569,0.259,0.2596,0.2624,0.2626,0.2615,0.2656,0.2645,0.2647,0.2655,0.2659,0.2661,0.2637,0.2625,0,0,0,0,0,0.2426,0.2431,0.2453,0.2454,0.2463,0.2487,0.2496,0.252,0.254,0.2555,0.2573,0.2599,0.2622,0.2637,0.2647,0.2656,0.268,0.2673,0.2676,0.2678,0.2659,0.2733,0.2741,0.2656,0.2656,0.2656,0,0,0.2414,0.243,0.2432,0.2451,0.2465,0.2465,0.2499,0.2515,0.2521,0.2552,0.2569,0.2601,0.2626,0.2649,0.2662,0.2659,0.2718,0.2681,0.2682,0.2662,0.2736,0.2744,0.2751,0.2657,0.2657,0.2657,0,0,0.2385,0.2412,0.2404,0.2418,0.2445,0.2458,0.2467,0.2491,0.2515,0.2528,0.2567,0.2608,0.2625,0.2657,0.2674,0.2691,0.2728,0.2711,0.2706,0.2779,0.2787,0.2793,0.2846,0.2858,0.2716,0.2716,0.2716,0,0.2373,0.2371,0.2401,0.2399,0.2411,0.2455,0.245,0.2467,0.2497,0.2522,0.2536,0.2606,0.2623,0.2674,0.2687,0.2695,0.2744,0.2693,0.2783,0.279,0.2797,0.285,0.2862,0.2717,0.2717,0.2717,0.2717,0,0.2334,0.2342,0.2339,0.2354,0.2366,0.2373,0.2404,0.2428,0.2464,0.2493,0.2554,0.259,0.2643,0.2662,0.2674,0.2741,0.2763,0.2778,0.2774,0.2807,0.286,0.2873,0.2718,0.2718,0.2718,0.2717,0,0,0.2288,0.2308,0.2309,0.2314,0.2351,0.2351,0.2374,0.2411,0.2438,0.2487,0.253,0.2582,0.2635,0.2656,0.2702,0.2753,0.2842,0.2786,0.2789,0.2835,0.3008,0.2852,0.2851,0.2894,0.2896,0.2897,0.303,0,0.2255,0.2235,0.2262,0.2252,0.2248,0.2305,0.232,0.2365,0.2415,0.2465,0.2543,0.2598,0.2628,0.2673,0.2732,0.2818,0.2875,0.2804,0.2969,0.2973,0.2829,0.2859,0.2535,0.2611,0.3042,0.3044,0.3046,0,0.2213,0.2208,0.219,0.2214,0.2219,0.2226,0.228,0.2303,0.2393,0.244,0.2529,0.2596,0.2695,0.2706,0.2875,0.2842,0.2917,0.2972,0.298,0.2828,0.2839,0.2646,0.2618,0.3067,0.3065,0.3064,0.3062,0,0.2161,0.2163,0.215,0.2156,0.2184,0.2203,0.2231,0.2304,0.234,0.2444,0.2495,0.262,0.2703,0.2818,0.2949,0.2932,0.3121,0.3118,0.3046,0.3037,0.2781,0.2744,0.322,0.322,0.322,0.3219,0.3219,0,0.212,0.2109,0.2127,0.2118,0.2118,0.2161,0.2189,0.2239,0.2325,0.2378,0.2494,0.2565,0.2739,0.2872,0.2968,0.3047,0.3158,0.3032,0.3055,0.2776,0.2738,0.3144,0.3133,0.3224,0.3223,0.3222,0.3221,0,0.2068,0.208,0.2063,0.2084,0.2094,0.2098,0.2159,0.2182,0.2279,0.2356,0.24,0.2562,0.2731,0.289,0.3081,0.3058,0.3154,0.3158,0.2803,0.2777,0.3013,0.3002,0.3062,0.3057,0.3054,0.305,0.3048,0,0.2036,0.2022,0.2027,0.2019,0.2033,0.2051,0.2068,0.2153,0.2191,0.2349,0.2385,0.2569,0.2669,0.2869,0.2838,0.2934,0.314,0.2711,0.2578,0.2977,0.2996,0.2991,0.2985,0.2272,0.2264,0.2256,0.2251,0,0.1973,0.1984,0.1971,0.1951,0.1958,0.1963,0.2003,0.2022,0.2137,0.2213,0.2334,0.2422,0.2526,0.2454,0.2532,0.2538,0.2652,0.2559,0.311,0.2337,0.2236,0.2253,0.2273,0.2186,0.2193,0.2197,0.2201,0.2203,0.1927,0.1905,0.1889,0.1869,0.1871,0.1862,0.1858,0.1913,0.1961,0.201,0.2151,0.2186,0.2198,0.2111,0.2097,0.2053,0.2216,0.2155,0.2177,0.2206,0.2065,0.196,0.1833,0.1837,0.1841,0.1844,0.1847,0,0.1835,0.1825,0.1802,0.1762,0.1729,0.178,0.1798,0.1771,0.1798,0.182,0.1861,0.1671,0.1613,0.1735,0.1489,0.1438,0.141,0.1468,0.1436,0.1495,0.1549,0.1377,0.0962,0.0961,0.096,0.0959,0,0,0.178,0.172,0.1704,0.162,0.1621,0.1587,0.1596,0.1569,0.1567,0.1437,0.1404,0.1448,0.1586,0.126,0.1177,0.1069,0.1289,0.1005,0.1686,0.1701,0.1756,0.1884,0.1675,0,0,0,0,0]},{"header":{"parameterUnit":"m.s-1","parameterCategory":2,"la1":30.2991,"la2":30.254,"lo1":-89.0895,"lo2":-89.0444,"dy":0.0017,"dx":0.0017,"nx":28,"ny":28,"refTime":"2023-07-26T21:00:00:Z","depth":"2","parameterNumber":3,"parameterNumberName":"V-component_of_CURRENTS"},"data":[0,0,0,0,0,0,0,0,0,0,0,0,0,0,0,0,0,0,0,0,0,0,0,0,0,0,0,0,0,0,0,0,0,0,0,0,0,0,0,0,0,0,0,0,0,0,0,0,0,0,0,0,0,0,0,0,0,0,-0.02,-0.02,0,-0.0165,-0.0164,-0.0163,-0.0184,-0.0185,-0.0187,-0.0188,-0.024,-0.024,-0.0241,0,0,0,0,0,0,0,0,0,0,0,0,0,-0.0255,-0.0254,-0.02,-0.02,-0.02,-0.0165,-0.0164,-0.0163,-0.0184,-0.0185,-0.0187,-0.0188,-0.024,-0.024,-0.0241,0,0,0,0,0,0,0,0,0,0,0,0,0,-0.0225,-0.0254,-0.02,-0.0207,-0.0208,-0.0165,-0.0164,-0.0163,-0.0184,-0.0185,-0.0187,-0.0189,-0.024,-0.024,-0.0241,-0.0208,0,0,-0.0242,-0.0242,0,0,0,0,0,0,0,0,-0.0227,-0.0223,-0.0206,-0.0207,-0.0207,-0.0182,-0.0203,-0.0183,-0.0183,-0.0191,-0.0188,-0.019,-0.0229,-0.023,-0.0216,-0.021,-0.0213,-0.0242,-0.0242,-0.0242,-0.0243,0,0,0,0,0,0,0,-0.0229,-0.0224,-0.0184,-0.0206,-0.0206,-0.0202,-0.0199,-0.0198,-0.0201,-0.019,-0.0192,-0.0191,-0.023,-0.0215,-0.0217,-0.0213,-0.0242,-0.0242,-0.0243,-0.0243,-0.0218,-0.0217,0,0,0,0,0,0,-0.0236,-0.0226,-0.0185,-0.0183,-0.0223,-0.0199,-0.0197,-0.0187,-0.0199,-0.0202,-0.0189,-0.0192,-0.0213,-0.0217,-0.0219,-0.0191,-0.0242,-0.0243,-0.0243,-0.0219,-0.0217,-0.0216,0,0,0,0,0,0,-0.0237,-0.0232,-0.0187,-0.0206,-0.02,-0.0197,-0.0185,-0.0185,-0.0179,-0.0197,-0.0202,-0.0185,-0.0215,-0.0219,-0.0209,-0.0193,-0.0243,-0.0243,-0.022,-0.0218,-0.0217,-0.0129,0,0,0,0,0,0,-0.0239,-0.0233,-0.0222,-0.0206,-0.02,-0.0155,-0.0184,-0.0183,-0.0176,-0.0179,-0.0195,-0.0201,-0.0217,-0.0208,-0.021,-0.0195,-0.0244,-0.0221,-0.0219,-0.0217,-0.0133,-0.0125,-0.0117,0,0,0,0,0,-0.0241,-0.0217,-0.0222,-0.0217,-0.0187,-0.0154,-0.0148,-0.0152,-0.0174,-0.0156,-0.0168,-0.0201,-0.02,-0.0207,-0.0209,-0.0194,-0.0222,-0.022,-0.0217,-0.0136,-0.0126,-0.0118,0,0,0,0,0,0,-0.023,-0.0216,-0.0222,-0.0194,-0.0175,-0.0158,-0.0141,-0.0149,-0.014,-0.0151,-0.0176,-0.0181,-0.0171,-0.0192,-0.02,-0.0184,-0.0221,-0.0219,-0.0159,-0.0149,-0.0142,-0.0141,-0.0244,0,0,0,0,0,-0.0224,-0.0205,-0.0191,-0.0166,-0.0158,-0.015,-0.0138,-0.0141,-0.0134,-0.0133,-0.0143,-0.0158,-0.016,-0.0163,-0.0168,-0.0148,-0.0183,-0.0146,-0.0138,-0.0131,-0.0132,-0.017,-0.0166,-0.0209,-0.0209,-0.021,0,0,-0.0212,-0.0203,-0.0191,-0.0163,-0.0151,-0.0117,-0.0147,-0.0124,-0.0098,-0.014,-0.011,-0.0129,-0.0149,-0.0128,-0.0127,-0.0145,-0.0131,-0.0128,-0.0122,-0.0127,-0.0168,-0.0164,-0.016,-0.0208,-0.0208,-0.0209,0,0,-0.0172,-0.0171,-0.014,-0.0122,-0.0102,-0.0093,-0.0088,-0.0071,-0.0066,-0.0036,-0.0067,-0.0072,-0.0067,-0.0076,-0.0081,-0.0035,-0.009,-0.0045,-0.0001,-0.0037,-0.0034,-0.0032,-0.0047,-0.0047,-0.004,-0.004,-0.004,0,-0.0159,-0.0121,-0.0123,-0.0088,-0.0069,-0.0082,-0.0042,-0.0026,-0.0008,0.0,-0.002,-0.0022,-0.004,-0.0024,-0.0008,-0.0017,-0.0045,-0.0031,-0.0027,-0.0026,-0.0025,-0.0042,-0.0043,-0.0035,-0.0036,-0.0036,-0.0037,0,-0.0094,-0.0066,-0.0045,-0.0007,0.0015,0.0048,0.0061,0.008,0.0075,0.0082,0.0093,0.0072,0.0063,0.0059,0.0043,0.0043,0.002,-0.0013,-0.005,-0.0016,-0.0035,-0.0037,-0.0029,-0.003,-0.0032,-0.0033,0,0,-0.0056,-0.0008,-0.0002,0.0024,0.0057,0.0084,0.0126,0.0162,0.0186,0.0184,0.021,0.02,0.0165,0.0155,0.0123,0.0096,0.0087,0.0047,0.0043,0.0035,0.0018,0.0034,0.0032,0.0047,0.0047,0.0046,0.0011,0,-0.0002,0.0069,0.0079,0.0148,0.0186,0.0187,0.023,0.0254,0.0264,0.0288,0.0252,0.0259,0.0208,0.0199,0.0166,0.0108,0.0079,0.0101,-0.0017,-0.002,-0.0009,0.0029,0.0003,-0.0029,0.0008,0.0007,0.0007,0,0.0062,0.0098,0.0169,0.0221,0.0238,0.027,0.032,0.0357,0.0378,0.0382,0.0369,0.0339,0.0313,0.0254,0.0165,0.0178,0.0103,0.005,0.0047,0.0025,-0.001,-0.0063,-0.0036,0.0002,0.0002,0.0002,0.0003,0,0.0096,0.0163,0.0217,0.0237,0.0293,0.0317,0.0344,0.0379,0.0413,0.0429,0.0447,0.0404,0.0384,0.0286,0.0192,0.0168,0.0093,0.0042,-0.0013,-0.0012,-0.0075,-0.0079,-0.0036,-0.0036,-0.0036,-0.0036,-0.0036,0,0.0155,0.0197,0.023,0.0262,0.0321,0.0343,0.0402,0.0428,0.0462,0.0513,0.0481,0.0511,0.0384,0.0336,0.0224,0.012,0.0114,0.0005,-0.002,-0.0041,-0.0041,-0.0058,-0.006,-0.0037,-0.0037,-0.0036,-0.0036,0,0.0191,0.0216,0.0276,0.0325,0.034,0.0378,0.0433,0.0481,0.0504,0.0567,0.0572,0.0579,0.0534,0.0422,0.0286,0.0173,0.0065,0.0022,0.0025,0.0002,-0.0028,-0.0025,-0.0052,-0.0052,-0.0052,-0.0052,-0.0052,0,0.0219,0.0254,0.0311,0.0341,0.0361,0.041,0.0456,0.0496,0.0551,0.0621,0.0664,0.0651,0.0693,0.0531,0.0306,0.0132,0.0112,-0.001,-0.0067,-0.0009,-0.003,-0.0028,-0.0025,-0.0114,-0.0115,-0.0115,-0.0115,0,0.027,0.0282,0.0329,0.0382,0.0428,0.049,0.0553,0.061,0.0674,0.076,0.0864,0.0908,0.0741,0.0574,0.033,0.0196,0.0018,-0.0021,0.0028,-0.0093,-0.0067,-0.0087,-0.0084,-0.0118,-0.0117,-0.0117,-0.0117,-0.0117,0.0298,0.0333,0.0381,0.0433,0.0487,0.0571,0.064,0.0747,0.0879,0.1015,0.1015,0.1069,0.0796,0.0498,0.028,0.0022,0.0015,-0.0094,-0.0094,-0.0094,-0.0081,-0.0055,-0.01,-0.01,-0.01,-0.01,-0.0099,0,0.0334,0.0369,0.0427,0.0497,0.0561,0.0569,0.0707,0.0829,0.1026,0.1114,0.1216,0.0995,0.0803,0.0534,0.0124,-0.01,-0.0134,-0.0136,-0.0158,-0.0155,-0.0153,-0.0144,-0.018,-0.018,-0.018,-0.018,0,0,0.0357,0.0415,0.0446,0.0546,0.0582,0.0685,0.0769,0.1001,0.1122,0.1276,0.1261,0.119,0.084,0.053,0.022,0.0026,0.0001,-0.0001,0.0074,0.0085,0.0091,-0.013,-0.0113,0,0,0,0,0]}],[{"header":{"parameterUnit":"m.s-1","parameterCategory":2,"la1":30.2991,"la2":30.254,"lo1":-89.0895,"lo2":-89.0444,"dy":0.0017,"dx":0.0017,"nx":28,"ny":28,"refTime":"2023-07-26T21:00:00:Z","depth":"4","parameterNumber":2,"parameterNumberName":"U-component_of_CURRENTS"},"data":[0,0,0,0,0,0,0,0,0,0,0,0,0,0,0,0,0,0,0,0,0,0,0,0,0,0,0,0,0,0,0,0,0,0,0,0,0,0,0,0,0,0,0,0,0,0,0,0,0,0,0,0,0,0,0,0,0,0,0.0153,0.0154,0,0.0281,0.0283,0.0285,0.0417,0.0419,0.042,0.0422,0.0501,0.0501,0.0502,0,0,0,0,0,0,0,0,0,0,0,0,0,0.008,0.008,0.0153,0.0154,0.0155,0.0281,0.0283,0.0285,0.0417,0.0419,0.0421,0.0422,0.05,0.0501,0.0502,0,0,0,0,0,0,0,0,0,0,0,0,0,0.0153,0.008,0.0152,0.0234,0.0242,0.028,0.0283,0.0286,0.0416,0.0419,0.0421,0.0423,0.05,0.0501,0.0502,0.0463,0,0,0.0505,0.0506,0,0,0,0,0,0,0,0,0.0148,0.0156,0.0221,0.0228,0.0238,0.0333,0.0286,0.0341,0.0416,0.0354,0.0422,0.0424,0.0436,0.0442,0.0467,0.0467,0.047,0.0505,0.0506,0.0506,0.0507,0,0,0,0,0,0,0,0.0143,0.0151,0.0207,0.0222,0.0232,0.0283,0.0296,0.0298,0.0382,0.0359,0.0368,0.0377,0.0441,0.0466,0.0469,0.0471,0.0505,0.0506,0.0507,0.0507,0.0601,0.0602,0,0,0,0,0,0,0.0115,0.0146,0.0203,0.021,0.0194,0.0282,0.0297,0.0302,0.0384,0.0398,0.0375,0.0382,0.0463,0.0468,0.0473,0.0602,0.0506,0.0507,0.0508,0.0599,0.0601,0.0603,0,0,0,0,0,0,0.0113,0.0119,0.0198,0.0179,0.0192,0.028,0.0286,0.0304,0.04,0.0395,0.041,0.0461,0.0465,0.0471,0.054,0.0599,0.0508,0.0509,0.0597,0.0599,0.0602,0.075,0,0,0,0,0,0,0.011,0.0117,0.0146,0.0177,0.0192,0.0265,0.0284,0.0304,0.0395,0.0409,0.0471,0.0478,0.0467,0.0539,0.0541,0.0599,0.051,0.0594,0.0598,0.0601,0.0743,0.0758,0.077,0,0,0,0,0,0.0107,0.0122,0.0146,0.0155,0.0217,0.0266,0.0281,0.0353,0.0398,0.0449,0.0497,0.048,0.0562,0.0542,0.0544,0.0604,0.0593,0.0597,0.0601,0.0737,0.0755,0.077,0,0,0,0,0,0,0.0113,0.0137,0.0164,0.0191,0.0247,0.0289,0.0346,0.039,0.0471,0.0507,0.0508,0.0517,0.0596,0.0573,0.0551,0.0637,0.0571,0.0576,0.0674,0.0691,0.0704,0.0721,0.0511,0,0,0,0,0,0.012,0.0145,0.0179,0.0214,0.0245,0.0311,0.0354,0.0406,0.046,0.0505,0.055,0.0583,0.06,0.063,0.0641,0.0692,0.0636,0.0727,0.0741,0.0753,0.0767,0.0725,0.0736,0.0617,0.0617,0.0617,0,0,0.0134,0.0152,0.017,0.0219,0.0275,0.0336,0.0348,0.0434,0.0506,0.0492,0.0629,0.0639,0.0623,0.0688,0.0719,0.0689,0.0757,0.0758,0.0769,0.0776,0.0731,0.0742,0.0753,0.062,0.0619,0.0619,0,0,0.0167,0.0195,0.0235,0.0282,0.0365,0.0399,0.0438,0.0526,0.0596,0.0701,0.0701,0.0753,0.0811,0.0805,0.0803,0.0892,0.0828,0.0905,0.0999,0.096,0.0969,0.0977,0.0918,0.0919,0.0916,0.0917,0.0917,0,0.0199,0.024,0.0261,0.0319,0.0374,0.0436,0.0513,0.0575,0.0685,0.0738,0.0771,0.0862,0.086,0.0896,0.0943,0.0925,0.0889,0.0943,0.0978,0.0984,0.0989,0.0927,0.0927,0.0924,0.0923,0.0922,0.0922,0,0.0251,0.0314,0.0348,0.0435,0.0495,0.0574,0.0644,0.0737,0.0831,0.0886,0.0993,0.1003,0.1051,0.1059,0.1042,0.1083,0.1039,0.0997,0.0938,0.101,0.094,0.0937,0.0935,0.0932,0.093,0.0928,0,0,0.0254,0.0366,0.0391,0.0459,0.0571,0.0625,0.0739,0.0845,0.0928,0.1043,0.1137,0.1193,0.1217,0.1214,0.1193,0.1179,0.1189,0.1133,0.1127,0.1079,0.11,0.098,0.0963,0.1164,0.1164,0.1165,0.1035,0,0.0314,0.0432,0.0475,0.0617,0.069,0.077,0.0863,0.0965,0.1057,0.1157,0.1189,0.1268,0.1265,0.1305,0.1297,0.1212,0.119,0.1228,0.1034,0.1028,0.0915,0.0959,0.1166,0.1032,0.1031,0.103,0.103,0,0.0352,0.0433,0.0578,0.0713,0.0756,0.0856,0.1011,0.1098,0.1209,0.1281,0.1363,0.1384,0.1412,0.1387,0.1306,0.1339,0.1249,0.1174,0.1165,0.1,0.0902,0.0943,0.1023,0.1023,0.1024,0.1024,0.1025,0,0.0335,0.0497,0.0623,0.0676,0.0838,0.0939,0.1036,0.1162,0.1222,0.1364,0.1408,0.1462,0.1463,0.1406,0.1247,0.1309,0.1086,0.1134,0.0933,0.0922,0.1002,0.0995,0.1061,0.1061,0.1061,0.1061,0.1062,0,0.0352,0.0457,0.0646,0.0715,0.0866,0.0979,0.112,0.1222,0.1326,0.1329,0.1476,0.1405,0.1471,0.1337,0.1244,0.1035,0.1071,0.0954,0.0886,0.1066,0.1068,0.0999,0.0993,0.1056,0.1057,0.1058,0.1059,0,0.0314,0.0438,0.0581,0.0789,0.0862,0.0979,0.1143,0.12,0.1336,0.1333,0.1375,0.1377,0.1229,0.1191,0.1024,0.0985,0.0814,0.0704,0.0851,0.079,0.0708,0.0712,0.0603,0.0598,0.0593,0.0589,0.0586,0,0.0308,0.0383,0.061,0.0681,0.0797,0.0963,0.1037,0.1201,0.1202,0.1195,0.1128,0.1071,0.1032,0.0739,0.0695,0.0577,0.0541,0.0521,0.0724,0.0719,0.0664,0.0675,0.0685,0.0579,0.0578,0.0577,0.0576,0,0.0281,0.0378,0.048,0.0612,0.0737,0.0824,0.0925,0.0916,0.0994,0.111,0.0922,0.087,0.0681,0.0602,0.0507,0.0383,0.0615,0.0477,0.0492,0.0683,0.069,0.0642,0.0656,0.0561,0.0563,0.0564,0.0565,0,0.0253,0.0298,0.0411,0.0523,0.0621,0.0632,0.0727,0.0714,0.0757,0.0796,0.0633,0.0563,0.0563,0.047,0.0286,0.0276,0.0359,0.0448,0.0466,0.0482,0.0505,0.05,0.0255,0,0,0,0,0,0.0216,0.0231,0.0296,0.0401,0.0468,0.052,0.059,0.0659,0.0707,0.0583,0.0657,0.0471,0.0367,0.0271,0.0247,0.0212,0.0327,0.0182,0.0432,0.0476,0.0494,0.0533,0,0,0,0,0,0,0.0183,0.0236,0.025,0.0243,0.0265,0.0326,0.0355,0.041,0.0361,0.0423,0.0351,0.0464,0.0333,0.0367,0.023,0.0223,0.0384,0.0174,0.0174,0.0466,0.0482,0.0496,0.0543,0,0,0,0,0]},{"header":{"parameterUnit":"m.s-1","parameterCategory":2,"la1":30.2991,"la2":30.254,"lo1":-89.0895,"lo2":-89.0444,"dy":0.0017,"dx":0.0017,"nx":28,"ny":28,"refTime":"2023-07-26T21:00:00:Z","depth":"4","parameterNumber":3,"parameterNumberName":"V-component_of_CURRENTS"},"data":[0,0,0,0,0,0,0,0,0,0,0,0,0,0,0,0,0,0,0,0,0,0,0,0,0,0,0,0,0,0,0,0,0,0,0,0,0,0,0,0,0,0,0,0,0,0,0,0,0,0,0,0,0,0,0,0,0,0,0.0464,0.0464,0,0.0423,0.0422,0.0421,0.0385,0.0386,0.0386,0.0386,0.0229,0.0225,0.0221,0,0,0,0,0,0,0,0,0,0,0,0,0,0.0472,0.0472,0.0464,0.0464,0.0464,0.0423,0.0422,0.0421,0.0385,0.0386,0.0386,0.0386,0.0231,0.0226,0.022,0,0,0,0,0,0,0,0,0,0,0,0,0,0.0448,0.0472,0.0464,0.0446,0.0445,0.0423,0.0422,0.042,0.0385,0.0386,0.0386,0.0386,0.0232,0.0226,0.022,0.0175,0,0,0.02,0.0197,0,0,0,0,0,0,0,0,0.0449,0.0447,0.0449,0.0448,0.0446,0.0415,0.0368,0.0335,0.0385,0.0402,0.0386,0.0386,0.0284,0.0274,0.0258,0.0167,0.0161,0.0199,0.0195,0.0193,0.0191,0,0,0,0,0,0,0,0.0451,0.0448,0.0442,0.0449,0.0447,0.0427,0.0423,0.0361,0.0335,0.04,0.0399,0.0404,0.0282,0.0265,0.0254,0.0158,0.0199,0.0194,0.019,0.0187,-0.0032,-0.0033,0,0,0,0,0,0,0.047,0.045,0.0443,0.0441,0.0455,0.0427,0.0423,0.042,0.0338,0.0329,0.0404,0.0403,0.0276,0.0262,0.0248,0.0153,0.0193,0.0187,0.0183,-0.003,-0.0032,-0.0034,0,0,0,0,0,0,0.047,0.0469,0.0445,0.045,0.0446,0.0428,0.0424,0.0419,0.0398,0.0344,0.0331,0.0388,0.0275,0.0258,0.0175,0.0149,0.0184,0.0178,-0.0027,-0.003,-0.0033,-0.0013,0,0,0,0,0,0,0.047,0.0469,0.0485,0.0451,0.0447,0.0428,0.0424,0.0418,0.0404,0.0401,0.0326,0.0312,0.0274,0.0185,0.0169,0.014,0.0173,-0.0025,-0.0029,-0.0032,-0.0011,-0.0015,-0.0018,0,0,0,0,0,0.0471,0.0482,0.0486,0.0486,0.0465,0.0428,0.0422,0.0407,0.0403,0.0388,0.033,0.0314,0.0151,0.0178,0.016,0.0129,-0.0023,-0.0028,-0.0032,-0.001,-0.0014,-0.0018,0,0,0,0,0,0,0.0484,0.0479,0.0482,0.0491,0.0464,0.0424,0.0426,0.0404,0.0349,0.0345,0.0287,0.0267,0.0186,0.0149,0.0181,0.0053,0.0062,0.0054,0.0085,0.008,0.0077,0.0111,0.0167,0,0,0,0,0,0.05,0.0513,0.0488,0.0494,0.0487,0.0455,0.0444,0.0422,0.0371,0.0349,0.0289,0.0222,0.0153,0.0113,0.0048,-0.0024,-0.0041,-0.0057,-0.0061,-0.0063,-0.005,-0.011,-0.0116,-0.0048,-0.0048,-0.0048,0,0,0.0512,0.0509,0.0519,0.05,0.0484,0.0456,0.0446,0.0423,0.0386,0.0337,0.0263,0.0206,0.013,0.0051,0.0011,0.0017,-0.0093,-0.0068,-0.007,-0.0055,-0.0115,-0.0121,-0.0127,-0.0051,-0.0051,-0.005,0,0,0.0524,0.0533,0.0543,0.0518,0.0496,0.0466,0.0457,0.0403,0.0373,0.0297,0.025,0.0178,0.0072,0.0013,-0.0029,-0.0093,-0.0108,-0.0117,-0.0107,-0.0166,-0.0171,-0.0176,-0.02,-0.0207,-0.0118,-0.0118,-0.0118,0,0.0544,0.0543,0.0536,0.0521,0.0505,0.0467,0.0446,0.0401,0.0319,0.0291,0.0275,0.012,0.0055,-0.0037,-0.0059,-0.0099,-0.0117,-0.008,-0.0167,-0.0172,-0.0177,-0.0201,-0.0209,-0.0118,-0.0118,-0.0118,-0.0118,0,0.0541,0.0545,0.0542,0.0515,0.0489,0.0465,0.0408,0.0365,0.0323,0.0277,0.0183,0.0092,0.0018,-0.0033,-0.0066,-0.0142,-0.0138,-0.016,-0.0145,-0.0182,-0.0206,-0.0214,-0.0117,-0.0117,-0.0117,-0.0118,0,0,0.0572,0.0553,0.0555,0.0548,0.0486,0.0464,0.0402,0.0343,0.032,0.0224,0.018,0.0049,0.0029,-0.002,-0.0078,-0.0144,-0.0202,-0.0158,-0.0162,-0.016,-0.0303,-0.0236,-0.0239,-0.0233,-0.0235,-0.0236,-0.0301,0,0.0575,0.0575,0.0547,0.0521,0.0507,0.0453,0.0409,0.0346,0.0288,0.0231,0.0136,0.0083,0.0026,0.0011,-0.0073,-0.0183,-0.0224,-0.018,-0.0286,-0.0288,-0.0207,-0.0247,-0.0242,-0.0307,-0.0309,-0.031,-0.0311,0,0.0567,0.0574,0.0578,0.0543,0.0534,0.0522,0.0467,0.042,0.0331,0.0293,0.0219,0.0155,0.0042,0.002,-0.0169,-0.0135,-0.0196,-0.0277,-0.0282,-0.0228,-0.0237,-0.0269,-0.0327,-0.0326,-0.0325,-0.0324,-0.0323,0,0.0592,0.0579,0.0601,0.0586,0.0547,0.0554,0.0536,0.0461,0.0438,0.037,0.0346,0.0202,0.0144,0.0013,-0.0146,-0.0151,-0.0339,-0.0368,-0.036,-0.0355,-0.0401,-0.0396,-0.0454,-0.0454,-0.0453,-0.0453,-0.0453,0,0.0577,0.0597,0.0641,0.0647,0.0677,0.063,0.0647,0.0604,0.0557,0.0487,0.042,0.0306,0.0141,0.0002,-0.013,-0.0272,-0.0319,-0.0353,-0.0372,-0.0392,-0.0385,-0.0406,-0.04,-0.0456,-0.0455,-0.0455,-0.0454,0,0.0579,0.0614,0.0642,0.0667,0.0695,0.0724,0.075,0.0737,0.0707,0.0614,0.0605,0.0403,0.0203,0.0068,-0.0164,-0.0232,-0.0378,-0.0394,-0.0376,-0.0394,-0.0356,-0.0349,-0.0407,-0.0405,-0.0404,-0.0403,-0.0402,0,0.0569,0.0598,0.0683,0.0734,0.0767,0.0824,0.0846,0.083,0.0768,0.0599,0.0507,0.0366,0.021,-0.0045,-0.0199,-0.0346,-0.036,-0.0381,-0.0394,-0.0341,-0.0355,-0.0349,-0.0344,-0.0399,-0.0399,-0.0399,-0.0398,0,0.0538,0.0606,0.0629,0.0753,0.0823,0.086,0.0863,0.0807,0.0693,0.0712,0.0434,0.0303,0.0099,-0.0102,-0.0137,-0.0287,-0.0356,-0.0367,-0.0371,-0.0384,-0.0332,-0.0346,-0.0343,-0.0393,-0.0394,-0.0395,-0.0395,0,0.0526,0.0546,0.0621,0.0706,0.0837,0.0824,0.0812,0.0704,0.066,0.046,0.0333,0.0145,0.0044,-0.0078,-0.02,-0.0233,-0.0265,-0.0275,-0.0286,-0.0292,-0.0228,-0.0144,-0.0162,0,0,0,0,0,0.0493,0.0503,0.0566,0.0624,0.0763,0.0843,0.0786,0.0728,0.0598,0.043,0.0397,0.0199,0.0029,-0.01,-0.0122,-0.0189,-0.0273,-0.0217,-0.0289,-0.0365,-0.0371,-0.0308,0,0,0,0,0,0,0.0464,0.0525,0.0518,0.0577,0.0643,0.0729,0.0711,0.0593,0.0469,0.0358,0.0257,0.0262,0.0089,0.0094,-0.0089,-0.0111,-0.0154,-0.0273,-0.0272,-0.0362,-0.0367,-0.0372,-0.0309,0,0,0,0,0]}]]